Location: Boiro
(42.6475°N, 8.8834°W)
Time: 06:26:54
(UTC+02:00)

MOZHAYETS 4 - Visible Passes

Search period start: 26 June 2022 00:00
Search period end: 06 July 2022 00:00
Orbit: 660 x 679 km, 98.2° (Epoch: 25 June)

Date Brightness Start Highest point End Pass type
(mag) Time Alt. Az. Time Alt. Az. Time Alt. Az.
26 Jun 10.4 03:34:13 10° E 03:36:43 15° ENE 03:39:13 10° NNE visible
26 Jun 7.7 05:09:56 19° S 05:13:15 66° WSW 05:17:51 10° NNW visible
27 Jun 9.5 04:04:58 10° SE 04:08:54 28° ENE 04:12:51 10° N visible
27 Jun 8.6 05:42:52 16° SSW 05:45:54 30° W 05:49:59 10° NW visible
28 Jun 8.2 04:37:35 15° SSE 04:41:15 58° ENE 04:45:48 10° N visible
28 Jun 9.5 06:16:09 10° SW 06:18:41 15° W 06:21:14 10° WNW visible
29 Jun 10.4 03:34:42 10° E 03:37:13 15° ENE 03:39:43 10° NNE visible
29 Jun 7.7 05:10:32 19° S 05:13:45 65° WSW 05:18:21 10° NNW visible
30 Jun 9.5 04:05:28 10° SE 04:09:24 28° ENE 04:13:20 10° N visible
30 Jun 8.6 05:43:27 16° SSW 05:46:23 30° W 05:50:27 10° NW visible
01 Jul 8.2 04:38:11 16° SSE 04:41:45 59° ENE 04:46:17 10° N visible
01 Jul 9.5 06:16:41 10° SW 06:19:11 14° W 06:21:42 10° WNW visible
02 Jul 10.4 03:35:11 10° E 03:37:42 15° ENE 03:40:13 10° NNE visible
02 Jul 7.7 05:11:07 20° S 05:14:14 65° WSW 05:18:50 10° NNW visible
03 Jul 9.5 04:05:57 10° SE 04:09:53 29° ENE 04:13:50 10° N visible
03 Jul 8.6 05:44:03 16° SSW 05:46:53 30° W 05:50:55 10° NW visible
04 Jul 8.2 04:38:47 17° SSE 04:42:14 59° ENE 04:46:46 10° N visible
04 Jul 9.5 06:17:12 10° WSW 06:19:41 14° W 06:22:08 10° WNW visible
05 Jul 10.4 03:35:38 10° E 03:38:10 15° ENE 03:40:42 10° NNE visible
05 Jul 7.7 05:11:42 21° S 05:14:43 64° WSW 05:19:18 10° NNW visible
